Volver al catálogo

ZHUHAI-1 03E

ActivoCienciaSSO
NORAD 44539·PAYLOAD·🇨🇳 China

Lanzado Sep 19, 2019 desde Jiuquan Satellite Launch Center

Loading…

Próximos Pases (próximas 24 horas)

TLE

ActualizadoSource: Space-Track

Época: Sep 14, 2026, 21:38 UTC

1 44539U 19060F   26257.90202025  .00015988  00000-0  35575-3 0  9992
2 44539  97.5730  51.2112 0006388  64.2252 295.9654 15.43709212389594

Sigue ZHUHAI-1 03E en tiempo real con AllMySat

Download on the App Store